RH
7 3 3 5 10 14 21 30 49 70 87 78 72 90 68 77 89 56 62 64 84 94 94 84 84 86 83 78 70 64 62 66 68 65 57 48 34 52 74 71 58 57 63 66 63 58 52 42 33
4 3 5 8 13 38 69 86 61 72 90 65 62 44 68 88 85 70 96 84 90 94 79 98 88 85 82 77 76 78 79 73 66 58 44 38 28 27 44 62 58 56 72 70 65 60 56 48 32
3 5 6 14 38 49 76 74 88 92 60 26 31 30 95 98 97 98 98 91 96 92 88 95 93 96 88 97 98 93 82 67 65 57 56 36 31 28 40 51 56 62 83 72 75 72 68 54 30
4 6 16 23 52 80 73 68 78 75 77 38 83 89 76 64 53 56 97 75 77 92 96 100 92 94 86 96 96 86 79 85 72 52 78 71 45 42 42 46 47 56 82 76 80 73 68 49 24
4 12 41 91 93 72 73 54 47 45 30 37 59 53 92 96 41 31 52 94 71 94 97 82 84 96 96 96 97 95 100 92 80 47 52 58 76 68 65 72 66 76 83 84 82 81 60 29 26
5 22 93 98 89 82 60 22 22 76 29 31 46 33 48 83 68 67 36 49 85 89 83 80 97 93 98 91 88 82 77 68 71 54 46 80 78 87 86 80 88 87 80 75 77 65 41 24 31
9 40 73 86 71 67 66 73 78 97 84 94 97 89 74 55 67 84 51 44 65 96 82 76 96 97 88 82 83 77 64 47 68 61 68 91 88 95 85 92 88 85 77 71 66 40 33 31 27
12 28 76 88 85 70 77 67 52 76 91 26 76 85 68 55 59 73 78 69 78 95 88 97 93 97 93 93 88 96 69 84 96 81 77 87 91 91 94 91 87 87 79 76 62 37 22 37 38
13 44 93 95 100 100 67 60 32 80 50 15 38 37 56 98 81 61 70 72 67 77 95 93 95 95 96 96 97 97 97 97 98 86 94 87 95 96 95 95 95 92 84 50 34 23 42 44 38
14 62 100 93 61 38 55 57 23 24 55 57 95 32 37 54 49 48 46 39 56 79 94 82 91 96 94 96 96 96 94 94 96 95 85 89 89 95 96 95 96 98 52 35 23 46 45 46 30
22 65 98 83 52 16 49 31 89 52 90 46 79 75 45 66 57 38 39 41 48 64 61 76 84 95 95 97 97 78 66 68 85 92 98 96 94 94 96 96 96 95 89 80 48 48 56 46 22
15 24 50 32 36 18 46 100 94 77 85 53 58 51 60 69 49 41 50 52 45 47 49 52 62 68 74 73 79 68 69 97 79 97 97 97 96 92 97 95 97 95 82 62 57 54 46 22 14
40 28 27 23 14 27 30 43 58 52 50 51 47 47 49 53 58 42 45 53 60 50 45 41 44 48 50 57 54 58 81 81 97 94 90 96 98 97 98 97 96 91 68 51 44 30 17 15 13
29 11 15 46 28 29 43 53 85 93 58 60 54 48 44 38 44 50 56 54 46 39 38 35 32 37 48 55 94 99 72 97 97 97 96 97 97 97 97 94 88 62 41 27 17 15 16 14 12
10 22 63 96 93 72 76 93 90 74 50 78 80 67 43 39 89 34 37 44 50 50 46 42 42 42 44 55 100 99 92 97 96 92 96 98 97 97 84 65 55 57 47 19 16 16 14 14 12
14 41 65 94 80 74 84 93 94 64 55 67 80 96 78 48 69 94 61 68 74 59 52 49 44 50 52 82 91 100 97 96 95 96 97 97 92 77 68 62 56 46 26 17 16 15 15 12 11
52 60 93 71 85 69 85 99 89 84 76 76 77 93 78 93 96 96 93 72 73 74 94 93 80 84 96 99 97 96 97 96 94 95 71 53 63 75 58 46 26 17 17 17 17 16 12 10 10
100 93 98 94 76 75 83 98 70 90 61 72 66 74 68 39 41 44 45 42 45 33 33 40 48 69 88 88 73 64 70 83 69 60 90 74 71 62 72 55 17 18 19 18 17 15 10 13 44
93 97 94 86 69 70 76 95 95 70 81 46 63 29 23 24 54 29 56 41 32 27 29 25 37 42 46 32 38 40 47 56 74 85 81 86 87 94 68 38 26 21 20 19 18 14 14 32 66
79 86 99 98 88 54 52 73 92 80 63 29 42 53 22 18 20 21 20 25 29 24 31 33 37 40 51 44 41 39 36 44 74 96 88 100 97 68 37 28 73 32 20 19 18 17 46 60 62
14 36 80 92 98 89 51 61 96 91 65 59 22 34 42 18 13 13 14 15 25 27 35 33 25 20 25 42 36 38 34 24 20 20 44 91 87 80 31 22 24 36 28 54 74 70 74 76 68
20 54 97 89 96 73 98 86 81 96 67 58 30 21 37 45 16 12 13 22 21 26 31 24 13 12 12 15 21 42 50 55 42 26 51 76 58 32 38 46 78 96 82 80 97 86 85 82 58
71 70 86 66 60 82 99 88 96 90 81 80 56 55 61 38 34 35 21 12 13 12 12 12 12 13 13 13 17 25 28 55 79 82 49 58 66 75 93 97 59 52 72 75 86 92 97 86 80
87 67 95 62 33 70 75 97 96 98 95 96 88 80 60 52 46 47 36 40 27 15 13 13 13 15 23 24 36 50 72 80 81 98 90 97 71 81 92 84 93 61 66 79 90 92 98 94 92
36 58 53 80 89 66 83 100 98 99 91 98 80 62 23 33 50 42 29 45 56 72 74 62 56 42 28 38 73 92 97 92 87 90 99 96 99 98 98 97 86 78 78 88 97 89 93 92 80
34 46 53 73 88 94 98 75 67 74 67 84 48 50 37 31 29 33 36 24 36 61 61 60 49 47 41 42 63 93 93 72 81 83 89 94 95 90 90 91 88 85 93 95 98 91 93 78 88
72 36 70 82 98 95 87 88 88 71 72 42 40 40 43 47 34 25 32 20 21 44 63 52 44 42 40 23 21 48 42 23 75 23 19 27 56 87 96 97 94 91 65 75 70 84 71 52 44
26 84 66 90 94 96 89 78 96 90 99 89 44 39 33 34 35 32 70 88 63 43 46 50 42 50 28 25 27 29 20 23 71 21 20 30 64 65 83 53 34 32 37 40 56 65 49 48 39
27 24 50 72 96 96 63 68 80 92 73 100 61 40 31 34 42 34 36 53 59 67 96 81 38 49 61 88 67 34 21 25 43 24 22 39 59 58 58 39 32 35 32 26 23 26 27 40 39
46 16 39 89 63 76 72 48 99 99 99 88 52 37 28 16 14 39 46 73 76 84 85 57 50 63 72 58 38 71 78 77 37 34 44 78 68 87 56 40 45 32 25 26 27 32 38 37 42
Wind_Speed
53 53 39 23 16 10 7 12 2 11 28 33 39 36 39 38 30 52 60 59 55 31 39 36 34 30 28 29 29 28 29 29 27 25 22 21 18 18 19 17 16 17 14 12 11 12 12 12 12
54 43 27 15 8 0 8 17 15 23 29 31 32 30 54 50 34 35 41 51 43 17 39 36 35 31 29 31 32 31 31 27 25 21 20 21 19 19 21 19 20 19 13 11 11 10 12 13 13
46 34 17 8 4 4 9 20 15 18 29 31 37 35 37 31 27 28 31 24 26 25 38 35 35 30 39 36 32 30 29 27 24 18 20 21 20 21 22 22 19 17 11 12 11 12 13 15 15
36 18 7 5 8 6 11 19 26 21 25 35 22 28 31 34 27 33 29 27 30 31 23 29 36 35 33 34 28 28 27 25 21 19 16 17 19 22 23 20 18 17 16 12 8 11 14 16 14
24 10 15 11 10 13 19 25 31 29 27 24 34 33 33 24 33 30 33 34 29 33 24 31 36 36 36 22 26 26 26 25 21 21 21 20 19 22 22 20 17 16 15 13 13 15 15 11 10
15 8 9 13 14 14 27 25 31 30 26 26 29 34 33 33 39 22 32 36 31 34 30 26 37 46 44 39 26 23 23 27 25 23 25 23 24 23 22 17 14 11 11 11 14 13 13 10 10
9 8 3 12 14 22 24 11 23 20 21 21 17 27 21 10 17 17 23 25 31 17 23 19 25 24 16 24 21 19 20 27 27 26 25 27 28 28 25 19 16 12 12 13 13 10 8 6 7
7 9 10 10 20 23 18 16 15 16 24 27 19 20 19 18 17 18 22 23 20 20 21 37 23 26 28 26 21 23 26 24 33 27 26 22 24 29 32 26 19 16 12 12 11 9 7 6 8
4 10 11 6 10 23 21 11 17 15 14 23 20 23 18 18 19 19 23 22 20 28 22 18 16 21 29 13 14 23 26 25 31 32 28 39 36 36 38 32 27 19 11 11 10 8 6 8 6
2 9 5 19 25 26 24 17 15 13 15 21 14 22 18 21 22 23 24 25 27 25 21 22 21 16 23 15 17 17 17 30 21 31 30 33 34 42 41 38 32 18 14 11 10 10 9 8 8
1 5 16 18 24 17 11 12 16 12 16 22 7 9 20 22 25 26 26 26 25 25 22 21 22 25 23 22 21 18 23 25 22 29 35 39 37 46 50 41 34 24 18 14 12 12 11 10 9
11 9 18 19 23 13 11 14 16 18 16 18 17 15 17 17 20 25 25 22 22 25 27 24 22 24 25 25 25 25 27 33 34 35 42 46 46 38 35 35 28 19 14 12 10 10 11 9 11
10 11 15 17 13 12 12 14 17 12 18 22 21 22 22 19 22 26 26 23 22 24 28 27 26 27 26 24 22 25 29 40 37 31 35 34 43 36 38 17 19 11 10 9 10 11 10 11 14
12 7 8 8 12 12 13 15 17 11 13 18 20 24 29 24 28 28 25 24 26 28 30 30 29 29 26 29 28 27 28 34 37 25 28 35 38 30 19 17 10 11 9 9 10 9 11 13 17
4 4 6 7 18 18 18 25 7 15 20 21 22 27 19 18 21 18 27 28 29 30 31 32 31 29 29 28 25 28 28 30 27 21 19 23 20 23 14 10 11 10 9 10 11 11 14 17 19
4 4 10 17 18 21 15 17 8 14 24 23 18 17 15 8 14 19 20 23 24 27 25 25 27 26 24 20 22 30 28 26 22 14 15 20 18 14 12 10 10 10 12 12 13 14 17 19 22
5 9 16 17 16 13 11 20 26 16 20 23 15 16 20 11 6 5 8 12 9 15 9 3 13 19 28 33 30 19 19 19 15 17 18 16 12 11 10 11 12 12 13 15 15 17 20 21 22
7 14 14 19 24 17 13 21 17 18 23 15 12 15 16 16 17 13 8 7 12 11 14 15 16 18 18 16 18 14 13 15 15 16 11 4 9 12 11 9 13 13 14 15 19 20 23 21 29
14 13 4 22 20 18 5 24 22 21 20 16 9 6 6 5 10 7 7 6 7 8 9 11 11 12 7 8 10 9 8 10 11 9 11 13 12 14 11 12 11 13 16 20 22 25 28 30 35
22 17 9 16 19 23 14 2 22 20 19 17 14 6 5 4 4 4 4 4 4 3 5 6 7 5 4 7 7 6 6 3 3 8 10 12 15 13 12 11 15 18 22 26 28 31 34 37 37
16 24 14 21 18 14 11 3 8 22 21 23 16 11 6 6 3 2 3 3 3 4 5 7 8 8 8 6 6 7 7 6 9 13 14 14 16 12 13 15 18 23 28 31 36 35 40 39 35
10 11 17 20 13 18 12 10 14 24 22 18 16 10 11 9 7 6 5 4 5 5 5 7 8 10 11 10 10 11 10 10 11 15 16 16 18 17 18 20 22 24 27 30 31 34 37 38 39
11 18 21 16 21 13 13 12 9 12 17 22 14 11 9 7 9 6 6 8 7 5 7 8 9 10 13 14 13 15 16 18 17 19 22 23 22 23 26 24 22 24 28 32 34 37 38 42 43
14 18 17 19 18 20 12 14 17 15 17 17 21 11 10 8 8 10 8 9 9 10 12 11 12 12 12 12 15 15 14 16 26 29 29 29 27 26 24 23 22 28 31 32 33 36 38 40 46
17 14 13 13 11 11 7 15 13 24 4 3 17 20 19 12 15 17 18 13 12 10 11 11 13 14 12 10 17 19 23 17 26 25 33 32 31 29 26 23 26 31 32 32 35 37 38 44 49
18 16 15 21 20 19 26 18 13 16 19 15 14 14 21 24 21 19 19 19 15 14 13 13 13 14 13 14 15 23 15 20 20 18 14 13 11 17 22 28 32 32 31 32 39 41 43 47 47
20 22 9 23 21 17 4 8 10 16 21 21 21 21 20 23 29 23 18 20 21 19 16 15 16 17 17 18 15 14 20 20 19 18 18 20 23 25 29 27 28 30 34 37 40 44 46 47 50
29 18 23 29 23 19 16 16 16 25 13 24 20 22 21 21 22 26 31 16 17 25 23 19 17 20 22 20 18 18 19 20 19 22 24 24 26 28 28 27 31 36 37 39 43 47 49 50 52
30 32 28 29 26 28 24 17 26 21 21 10 23 24 26 19 21 22 23 23 26 25 28 33 22 25 25 21 26 26 25 24 24 26 28 27 30 31 31 32 35 38 38 40 43 46 49 51 54
29 28 32 31 28 26 27 21 20 17 18 19 20 19 22 16 19 22 23 24 23 23 26 32 30 32 29 26 28 29 30 28 30 30 30 30 33 32 32 36 38 39 42 44 47 49 51 51 56
Wind_Direction
324 323 325 311 297 295 2 355 236 217 257 229 236 228 233 239 218 220 231 229 247 161 183 214 215 221 227 232 238 243 246 249 252 251 257 259 260 249 247 249 260 260 252 249 259 268 262 265 269
327 328 323 308 292 38 343 260 249 234 244 241 242 243 270 234 224 223 241 238 263 231 185 200 209 217 226 234 235 237 243 245 246 252 257 258 255 252 254 255 256 259 259 257 258 260 267 272 270
330 332 325 307 299 3 292 277 191 238 249 250 240 268 251 273 237 242 239 261 272 261 211 197 203 226 233 230 227 232 237 242 245 250 259 254 252 254 251 253 256 255 251 249 261 276 275 274 268
334 340 327 9 24 257 267 279 235 227 244 244 252 251 252 249 258 255 265 255 258 255 215 217 224 225 236 207 217 230 238 243 247 246 260 258 254 254 254 256 262 256 246 248 273 283 277 269 266
343 12 51 352 301 296 269 239 254 238 255 286 251 247 248 265 247 236 255 264 234 247 245 229 222 224 222 211 213 228 243 250 251 247 250 263 265 257 253 269 258 247 246 267 281 280 275 262 262
351 76 37 316 335 261 271 254 249 254 267 259 250 249 238 263 241 255 258 270 265 253 267 257 221 224 235 233 224 241 250 254 251 245 254 269 268 265 255 268 254 253 262 284 288 277 271 257 270
4 75 93 298 257 255 284 270 246 259 276 236 270 276 297 244 243 252 252 261 258 232 233 232 228 191 226 215 230 242 247 247 245 241 246 255 270 262 261 263 256 259 265 282 268 253 249 249 280
37 78 79 298 287 291 284 329 319 265 252 262 268 257 267 266 254 259 255 251 255 226 232 244 210 240 219 215 223 233 243 250 248 243 242 249 267 272 264 256 254 251 261 266 253 227 234 252 271
56 71 353 276 274 283 289 296 292 279 261 275 267 257 255 258 259 247 252 260 257 261 261 271 257 217 196 265 266 238 249 252 246 252 266 259 273 273 261 252 251 250 233 206 209 229 241 264 283
90 95 279 255 252 262 267 282 306 285 273 273 283 270 255 257 257 247 250 247 248 259 273 284 285 274 279 300 285 284 277 249 275 252 260 267 275 269 262 246 242 225 189 204 218 226 252 261 263
278 175 256 244 266 250 241 271 296 293 299 301 300 251 258 272 241 251 249 249 256 259 259 264 266 275 279 276 285 269 280 270 254 252 280 268 265 273 264 243 237 200 180 195 221 236 247 256 265
301 244 262 254 260 255 238 266 282 283 302 305 308 288 282 269 235 245 248 248 254 257 258 257 262 264 271 271 270 270 280 264 272 262 280 278 266 285 247 252 245 195 167 215 229 243 252 246 263
307 290 281 277 278 265 265 273 281 302 317 307 293 282 272 257 234 230 235 240 246 254 256 254 255 257 265 266 266 286 285 268 269 262 281 282 262 255 247 218 166 160 207 220 240 240 237 257 280
286 299 294 323 316 292 278 278 264 255 345 333 302 279 267 256 246 231 239 245 254 254 257 260 261 258 259 263 248 275 276 280 255 267 278 272 251 240 182 162 165 197 202 212 220 226 250 274 284
269 255 305 324 320 305 317 305 305 346 4 355 313 297 288 246 244 231 239 251 257 260 261 263 262 255 262 261 255 257 265 264 265 264 260 251 222 166 150 173 190 204 217 214 223 246 266 278 291
212 215 339 332 304 301 326 340 328 5 9 6 345 319 306 280 244 259 242 258 268 271 266 260 258 255 248 251 252 255 242 237 259 212 193 173 156 151 180 201 222 225 221 224 241 258 273 288 304
68 5 314 301 330 304 332 319 324 14 14 350 354 44 61 93 168 169 147 98 108 62 77 232 256 239 223 231 246 234 241 236 170 153 161 165 159 193 202 212 228 218 221 237 255 267 282 299 310
285 264 251 282 302 273 339 313 321 358 356 348 347 18 59 77 77 78 87 87 70 52 65 70 66 72 90 96 101 113 110 116 148 162 147 207 203 217 219 220 217 219 238 255 265 280 290 297 304
239 262 302 282 284 310 7 316 318 344 344 353 3 356 34 60 79 101 69 59 66 70 35 54 63 80 70 90 104 125 143 151 168 138 189 210 224 229 222 222 237 251 260 270 281 282 285 293 303
225 222 236 270 296 286 303 208 306 317 321 348 345 5 352 32 26 42 49 13 11 24 49 45 49 71 87 40 25 16 359 337 234 217 231 227 239 232 227 234 250 265 271 276 279 283 291 296 299
247 215 194 233 276 285 270 284 263 279 297 335 333 351 354 339 342 357 350 343 345 340 356 8 13 24 21 7 355 334 318 294 273 259 246 242 244 237 248 253 265 275 278 283 284 279 285 292 297
244 183 216 264 240 251 256 285 271 284 286 317 322 339 335 321 336 335 329 299 303 330 333 340 358 2 1 355 344 328 321 313 292 272 258 245 247 252 254 262 269 278 290 287 286 288 288 294 300
203 225 227 249 243 227 251 279 282 280 280 309 348 341 333 323 320 334 320 305 304 298 304 322 327 336 335 331 328 319 320 312 302 288 271 258 250 253 258 267 277 290 291 293 292 291 295 296 296
219 231 238 262 224 223 239 237 267 256 233 259 300 324 317 312 323 326 323 317 310 300 296 298 307 321 328 314 320 287 294 301 294 285 272 258 248 257 264 266 280 286 290 290 293 293 295 292 295
218 222 237 240 235 261 227 235 252 274 254 199 265 281 300 293 301 310 307 304 296 289 285 293 297 296 291 295 283 310 287 319 315 313 267 265 273 262 267 283 286 286 289 291 293 294 293 292 298
220 231 248 237 227 213 219 218 223 268 280 252 283 277 288 301 303 300 286 282 284 281 287 298 305 309 304 295 302 318 305 304 314 349 345 263 293 296 296 290 287 288 293 295 290 294 292 294 296
232 223 210 250 269 250 213 211 226 258 264 272 269 270 270 271 288 297 275 269 276 277 287 298 300 301 298 293 297 299 300 309 319 311 309 310 298 292 303 290 299 299 293 291 291 290 295 298 299
228 220 213 234 252 260 238 227 242 255 233 269 253 265 274 276 264 277 288 279 270 291 286 282 289 293 293 295 295 290 289 295 291 299 303 304 296 298 297 297 295 293 295 296 296 295 296 297 299
230 231 223 230 240 244 240 225 247 232 273 218 278 292 287 273 282 272 268 271 273 265 274 287 287 288 283 281 287 283 282 286 288 293 295 295 295 296 292 293 293 294 297 298 298 298 299 298 300
237 237 230 231 236 240 245 236 240 260 275 263 276 287 286 283 280 267 265 263 263 266 272 276 283 287 283 276 275 276 278 283 288 291 295 294 296 295 296 296 298 298 299 300 302 302 303 304 306